This demonstration page uses our WeatherBlox Daily Observations layout. Learn more.

Left ArrowRight Arrow

34.16533, -84.80231

Hourly Observations for October 3, 2021

Temp ( °F °C ) Dew Point ( °F °C ) Humidity (%) Winds ( mph kmh ) Pressure ( in mb ) Visibility ( mi km ) Precip ( " mm )
12:15 am 00:15 Clear with Mist and Fog 68 20 68 20 100 100 N N/A 30.12 1020 5 8 N/A
12:35 am 00:35 Clear with Mist and Fog 68 20 66 19 94 94 N N/A 30.12 1020 6 10 N/A
12:55 am 00:55 Mostly Clear with Mist and Fog 68 20 66 19 94 94 N N/A 30.11 1020 6 10 N/A
1:15 am 01:15 Mostly Clear with Mist and Fog 68 20 66 19 94 94 N N/A 30.11 1020 6 10 N/A
1:35 am 01:35 Clear with Mist and Fog 68 20 66 19 94 94 N N/A 30.10 1019 6 10 N/A
1:55 am 01:55 Clear with Mist and Fog 68 20 66 19 94 94 E 3 6 30.10 1019 6 10 N/A
2:15 am 02:15 Mostly Clear with Mist and Fog 68 20 66 19 94 94 E 5 7 30.09 1019 6 10 N/A
2:35 am 02:35 Mostly Cloudy with Mist and Fog 68 20 66 19 94 94 N N/A 30.09 1019 6 10 N/A
2:55 am 02:55 Cloudy with Mist and Fog 68 20 66 19 94 94 N N/A 30.09 1019 6 10 N/A
3:15 am 03:15 Cloudy with Mist and Fog 68 20 66 19 94 94 N N/A 30.08 1019 6 10 N/A
3:35 am 03:35 Mostly Cloudy with Mist and Fog 68 20 66 19 94 94 N N/A 30.08 1019 6 10 N/A
3:55 am 03:55 Cloudy 68 20 66 19 94 94 N N/A 30.08 1019 7 11 N/A
4:15 am 04:15 Mostly Cloudy 68 20 66 19 94 94 N N/A 30.07 1018 7 11 N/A
4:35 am 04:35 Partly Cloudy 68 20 66 19 94 94 N N/A 30.07 1018 7 11 N/A
4:55 am 04:55 Mostly Cloudy 68 20 66 19 94 94 E 3 6 30.07 1018 7 11 N/A
5:15 am 05:15 Cloudy 68 20 66 19 94 94 N N/A 30.07 1018 7 11 N/A
5:35 am 05:35 Cloudy 68 20 66 19 94 94 N N/A 30.07 1018 7 11 N/A
5:55 am 05:55 Cloudy 68 20 66 19 94 94 N N/A 30.07 1018 7 11 N/A
6:15 am 06:15 Cloudy 68 20 66 19 94 94 ENE 5 7 30.07 1018 7 11 N/A
6:35 am 06:35 Cloudy 68 20 66 19 94 94 N N/A 30.07 1018 7 11 N/A
6:55 am 06:55 Cloudy with Light Rain 68 20 66 19 94 94 N N/A 30.07 1018 7 11 N/A
7:15 am 07:15 Cloudy 68 20 66 19 94 94 N N/A 30.06 1018 7 11 N/A
7:35 am 07:35 Cloudy 68 20 66 19 94 94 N N/A 30.06 1018 8 13 N/A
7:55 am 07:55 Cloudy 68 20 66 19 94 94 N N/A 30.07 1018 8 13 N/A
8:15 am 08:15 Mostly Cloudy 68 20 66 19 94 94 WNW 6 9 30.08 1019 7 11 N/A
8:35 am 08:35 Cloudy with Light Rain 68 20 66 19 94 94 N N/A 30.08 1019 8 13 N/A
8:55 am 08:55 Cloudy 68 20 66 19 94 94 N N/A 30.08 1019 7 11 N/A
9:15 am 09:15 Mostly Cloudy with Light Rain 68 20 66 19 94 94 N N/A 30.08 1019 5 8 N/A
9:35 am 09:35 Partly Cloudy with Light Rain 68 20 66 19 94 94 N N/A 30.08 1019 5 8 N/A
9:55 am 09:55 undefined N/A N/A N/A undefined N/A N/A N/A N/A
10:15 am 10:15 undefined N/A N/A N/A undefined N/A N/A N/A N/A
10:35 am 10:35 undefined N/A N/A N/A undefined N/A N/A N/A N/A
10:50 am 10:50 undefined N/A N/A N/A undefined N/A N/A N/A N/A
11:10 am 11:10 undefined N/A N/A N/A undefined N/A N/A N/A N/A
11:35 am 11:35 undefined N/A N/A N/A undefined N/A N/A N/A N/A
11:55 am 11:55 undefined N/A N/A N/A undefined N/A N/A N/A N/A
12:15 pm 12:15 undefined N/A N/A N/A undefined N/A N/A N/A N/A
12:35 pm 12:35 undefined N/A N/A N/A undefined N/A N/A N/A N/A
12:55 pm 12:55 undefined N/A N/A N/A undefined N/A N/A N/A N/A
1:15 pm 13:15 undefined N/A N/A N/A undefined N/A N/A N/A N/A
1:35 pm 13:35 undefined N/A N/A N/A undefined N/A N/A N/A N/A
1:55 pm 13:55 undefined N/A N/A N/A undefined N/A N/A N/A N/A
2:15 pm 14:15 undefined N/A N/A N/A undefined N/A N/A N/A N/A
2:35 pm 14:35 undefined N/A N/A N/A undefined N/A N/A N/A N/A
2:55 pm 14:55 undefined N/A N/A N/A undefined N/A N/A N/A N/A
3:15 pm 15:15 undefined N/A N/A N/A undefined N/A N/A N/A N/A
3:35 pm 15:35 undefined N/A N/A N/A undefined N/A N/A N/A N/A
3:55 pm 15:55 undefined N/A N/A N/A undefined N/A N/A N/A N/A
4:15 pm 16:15 undefined N/A N/A N/A undefined N/A N/A N/A N/A
4:35 pm 16:35 undefined N/A N/A N/A undefined N/A N/A N/A N/A
4:55 pm 16:55 undefined N/A N/A N/A undefined N/A N/A N/A N/A
5:15 pm 17:15 undefined N/A N/A N/A undefined N/A N/A N/A N/A
5:35 pm 17:35 undefined N/A N/A N/A undefined N/A N/A N/A N/A
5:55 pm 17:55 undefined N/A N/A N/A undefined N/A N/A N/A N/A
6:15 pm 18:15 undefined N/A N/A N/A undefined N/A N/A N/A N/A
6:35 pm 18:35 undefined N/A N/A N/A undefined N/A N/A N/A N/A
9:55 pm 21:55 undefined N/A N/A N/A undefined N/A N/A N/A N/A
10:15 pm 22:15 undefined N/A N/A N/A undefined N/A N/A N/A N/A
10:35 pm 22:35 undefined N/A N/A N/A undefined N/A N/A N/A N/A
10:55 pm 22:55 undefined N/A N/A N/A undefined N/A N/A N/A N/A
11:15 pm 23:15 undefined N/A N/A N/A undefined N/A N/A N/A N/A
11:35 pm 23:35 undefined N/A N/A N/A undefined N/A N/A N/A N/A
11:55 pm 23:55 undefined N/A N/A N/A undefined N/A N/A N/A N/A

Powered by AerisWeather